Pella, IA

11:19 PM CDT on May 25, 2017 (GMT -0500)
Pella Municipal

Weather History for KPEA - January, 2013

Change the Weather History Date:

Friday, January 4, 2013

  Actual Average (KOXV) Record (KOXV)
Temperature  
Mean Temperature 26 °F -  
Max Temperature 39 °F 29 °F 55 °F (2007)
Min Temperature 12 °F 11 °F -15 °F (1959)
Degree Days  
Heating Degree Days 40    
Moisture  
Dew Point 19 °F    
Average Humidity 69    
Maximum Humidity 86    
Minimum Humidity 50    
Precipitation  
Precipitation 0.00 in - - ()
Sea Level Pressure  
Sea Level Pressure 30.23 in    
Wind  
Wind Speed 8 mph (SW)    
Max Wind Speed 14 mph    
Max Gust Speed 23 mph    
Visibility 10 miles    
Events      
Averages and records for this station are not official NWS values.
T = Trace of Precipitation, MM = Missing Value Source: NWS Daily Summary

Daily Weather History Graph

Daily Weather History Graph

Search for Another Location

Airport or City:

Trip Planner

Search our weather history database for the weather conditions in past years. The results will help you decide how hot, cold, wet, or windy it might be!

Date:

Astronomy

Jan. 04, 2013 Rise Set
Actual Time 7:38 AM CST 4:55 PM CST
Civil Twilight 7:06 AM CST 5:27 PM CST
Nautical Twilight 6:32 AM CST 6:01 PM CST
Astronomical Twilight 5:58 AM CST 6:35 PM CST
Moon No Moon Rise 11:15 AM CST (1/4)
Length of Visible Light 10h 20m
Length of Day
9h 17m
Waning Gibbous, 55% of the Moon is Illuminated
Jan 4
Waning Gibbous
Jan 4
Last Quarter
Jan 11
New
Jan 18
First Quarter
Jan 26
Full

Hourly Weather History & Observations

Time (CST) Temp. Windchill Dew Point Humidity Pressure Visibility Wind Dir Wind Speed Gust Speed Precip Events Conditions
12:15 AM 12.2 °F 2.9 °F 8.6 °F 85% 30.32 in 10.0 mi SW 5.8 mph - N/A   Clear
12:35 AM 12.6 °F 3.4 °F 8.8 °F 85% 30.31 in 10.0 mi SW 5.8 mph - N/A   Clear
12:55 AM 13.5 °F 4.4 °F 10.0 °F 86% 30.30 in 10.0 mi SW 5.8 mph - N/A   Clear
1:15 AM 14.0 °F 5.1 °F 10.2 °F 85% 30.29 in 10.0 mi SW 5.8 mph - N/A   Clear
1:35 AM 14.4 °F 5.5 °F 10.4 °F 84% 30.29 in 10.0 mi SW 5.8 mph - N/A   Clear
1:55 AM 14.9 °F 5.0 °F 11.1 °F 85% 30.29 in 10.0 mi SW 6.9 mph - N/A   Clear
2:15 AM 14.9 °F 7.5 °F 10.9 °F 84% 30.30 in 10.0 mi SW 4.6 mph - N/A   Clear
2:35 AM 16.2 °F 5.5 °F 11.8 °F 83% 30.30 in 10.0 mi SW 8.1 mph - N/A   Clear
3:15 AM 16.7 °F 4.5 °F 12.2 °F 82% 30.29 in 10.0 mi SW 10.4 mph - N/A   Clear
6:15 AM 21.9 °F 11.0 °F 17.6 °F 83% 30.26 in 10.0 mi WSW 10.4 mph 23.0 mph N/A   Clear
6:35 AM 22.1 °F 10.0 °F 17.6 °F 83% 30.25 in 10.0 mi SW 12.7 mph 18.4 mph N/A   Clear
7:15 AM 20.5 °F 9.2 °F 16.5 °F 85% 30.26 in 10.0 mi SW 10.4 mph 19.6 mph N/A   Clear
7:35 AM 20.1 °F 10.3 °F 16.3 °F 85% 30.25 in 10.0 mi SW 8.1 mph - N/A   Clear
7:55 AM 20.3 °F 9.0 °F 16.7 °F 86% 30.25 in 10.0 mi SW 10.4 mph - N/A   Clear
8:15 AM 20.8 °F 9.0 °F 16.7 °F 84% 30.25 in 10.0 mi SW 11.5 mph - N/A   Clear
8:35 AM 21.9 °F 10.4 °F 17.4 °F 83% 30.25 in 10.0 mi SW 11.5 mph - N/A   Clear
8:55 AM 23.0 °F 11.7 °F 18.1 °F 82% 30.25 in 10.0 mi SSW 11.5 mph - N/A   Clear
9:15 AM 24.8 °F 14.0 °F 18.5 °F 77% 30.26 in 10.0 mi WSW 11.5 mph - N/A   Clear
9:35 AM 25.5 °F 16.2 °F 18.7 °F 75% 30.26 in 10.0 mi SW 9.2 mph - N/A   Clear
9:55 AM 27.3 °F 17.7 °F 19.4 °F 72% 30.26 in 10.0 mi WSW 10.4 mph - N/A   Clear
10:15 AM 29.3 °F 20.2 °F 20.1 °F 69% 30.27 in 10.0 mi WSW 10.4 mph - N/A   Clear
10:35 AM 30.2 °F 20.8 °F 20.3 °F 67% 30.27 in 10.0 mi WSW 11.5 mph 18.4 mph N/A   Clear
10:55 AM 31.5 °F 22.9 °F 21.0 °F 65% 30.27 in 10.0 mi WSW 10.4 mph 17.3 mph N/A   Clear
11:15 AM 32.2 °F 22.7 °F 21.2 °F 64% 30.25 in 10.0 mi WSW 12.7 mph - N/A   Clear
11:35 AM 33.4 °F 24.8 °F 21.4 °F 61% 30.25 in 10.0 mi WSW 11.5 mph 18.4 mph N/A   Clear
11:55 AM 34.0 °F 26.6 °F 21.9 °F 61% 30.24 in 10.0 mi WSW 9.2 mph - N/A   Clear
12:15 PM 34.9 °F 26.6 °F 21.7 °F 59% 30.23 in 10.0 mi WSW 11.5 mph 21.9 mph N/A   Clear
12:35 PM 34.9 °F 26.6 °F 21.2 °F 57% 30.22 in 10.0 mi WSW 11.5 mph 23.0 mph N/A   Clear
12:55 PM 35.8 °F 26.9 °F 21.7 °F 57% 30.21 in 10.0 mi WSW 13.8 mph 20.7 mph N/A   Clear
1:15 PM 36.3 °F 29.5 °F 21.9 °F 56% 30.21 in 10.0 mi WSW 9.2 mph - N/A   Clear
1:35 PM 37.9 °F 31.5 °F 22.6 °F 54% 30.20 in 10.0 mi WSW 9.2 mph - N/A   Clear
1:55 PM 38.5 °F 31.1 °F 22.5 °F 53% 30.20 in 10.0 mi WSW 11.5 mph 16.1 mph N/A   Clear
2:15 PM 38.7 °F 31.8 °F 22.1 °F 51% 30.20 in 10.0 mi WSW 10.4 mph 16.1 mph N/A   Clear
2:35 PM 39.2 °F 33.0 °F 22.1 °F 50% 30.19 in 10.0 mi SW 9.2 mph - N/A   Clear
2:55 PM 39.2 °F 32.0 °F 21.7 °F 50% 30.20 in 10.0 mi WSW 11.5 mph - N/A   Clear
3:15 PM 39.2 °F 32.5 °F 21.7 °F 50% 30.20 in 10.0 mi WSW 10.4 mph 16.1 mph N/A   Clear
3:35 PM 39.2 °F 33.0 °F 23.0 °F 52% 30.20 in 10.0 mi SW 9.2 mph - N/A   Clear
3:55 PM 39.2 °F 33.6 °F 22.1 °F 50% 30.21 in 10.0 mi WSW 8.1 mph - N/A   Clear
4:15 PM 38.7 °F 32.4 °F 21.9 °F 51% 30.20 in 10.0 mi SW 9.2 mph - N/A   Clear
4:35 PM 37.8 °F 32.5 °F 21.9 °F 53% 30.20 in 10.0 mi WSW 6.9 mph - N/A   Clear
4:55 PM 36.5 °F 31.0 °F 21.7 °F 55% 30.21 in 10.0 mi WSW 6.9 mph - N/A   Clear
5:15 PM 35.1 °F 31.0 °F 21.6 °F 58% 30.21 in 10.0 mi SW 4.6 mph - N/A   Clear
5:35 PM 34.7 °F 29.6 °F 21.7 °F 59% 30.21 in 10.0 mi SW 5.8 mph - N/A   Clear
5:55 PM 33.8 °F 27.7 °F 21.9 °F 62% 30.21 in 10.0 mi SW 6.9 mph - N/A   Clear
6:15 PM 33.8 °F 27.0 °F 21.9 °F 62% 30.22 in 10.0 mi SW 8.1 mph - N/A   Clear
6:35 PM 33.3 °F 26.4 °F 21.6 °F 62% 30.22 in 10.0 mi SSW 8.1 mph - N/A   Clear
6:55 PM 33.1 °F 25.5 °F 21.6 °F 63% 30.22 in 10.0 mi SSW 9.2 mph - N/A   Clear
7:15 PM 33.3 °F 26.4 °F 21.7 °F 63% 30.22 in 10.0 mi SW 8.1 mph - N/A   Clear
7:35 PM 32.9 °F 25.9 °F 21.7 °F 64% 30.21 in 10.0 mi SW 8.1 mph - N/A   Clear
7:55 PM 32.5 °F 25.5 °F 21.7 °F 64% 30.20 in 10.0 mi SW 8.1 mph - N/A   Clear
8:15 PM 32.4 °F 25.3 °F 21.7 °F 65% 30.20 in 10.0 mi SW 8.1 mph - N/A   Clear
8:35 PM 31.8 °F 25.4 °F 21.6 °F 66% 30.20 in 10.0 mi SSW 6.9 mph - N/A   Clear
8:55 PM 31.1 °F 23.7 °F 21.6 °F 68% 30.20 in 10.0 mi SSW 8.1 mph - N/A   Clear
9:15 PM 30.9 °F 23.5 °F 21.7 °F 69% 30.20 in 10.0 mi SSW 8.1 mph - N/A   Clear
9:35 PM 30.6 °F 22.4 °F 21.6 °F 69% 30.20 in 10.0 mi SW 9.2 mph - N/A   Clear
9:55 PM 29.8 °F 23.0 °F 21.6 °F 71% 30.20 in 10.0 mi SW 6.9 mph - N/A   Clear
10:15 PM 29.5 °F 24.5 °F 21.6 °F 72% 30.20 in 10.0 mi SW 4.6 mph - N/A   Clear
10:35 PM 28.9 °F 23.9 °F 21.2 °F 73% 30.20 in 10.0 mi SSW 4.6 mph - N/A   Clear
10:55 PM 27.5 °F 23.6 °F 20.8 °F 76% 30.20 in 10.0 mi SSW 3.5 mph - N/A   Clear
11:15 PM 27.5 °F 22.2 °F 21.2 °F 77% 30.19 in 10.0 mi SSW 4.6 mph - N/A   Clear
11:35 PM 27.1 °F 20.7 °F 21.2 °F 78% 30.19 in 10.0 mi SSW 5.8 mph - N/A   Clear
11:55 PM 27.5 °F 21.1 °F 21.7 °F 79% 30.19 in 10.0 mi SSW 5.8 mph - N/A   Clear